Trail de Cournonsec - 09/12/2017

16km nocturne solo

205 participants classés


Retour au Sommaire - Signaler une erreur - Faire défiler





1 2 3 4 5 /fin /tout

page suivante ->

Pl Do. Nom - Surname Prénom - Name S-Cat /cat Club - Team TEMPS - Time Km/h /sx
1 695 DIMAIO ROMAIN MSE 1 Perf plus Sete/GMT 01:08:44 14,0 1
2 532 ROUSSET JONATHAN MSE 2 BCAM BEZIERS 01:10:33 13,6 2
3 684 VIC THEO MES 1   01:10:46 13,6 3
4 640 NOULIBOS LIONEL MV1 1   01:11:08 13,5 4
5 703 ROMERO FREDERIC MV1 2 PEROLS FOOTING UGLOW 01:11:46 13,4 5
6 587 MAGIN JULIEN MSE 3   01:12:01 13,3 6
7 671 ROVERCH MANU MSE 4 Run in cres 01:12:56 13,2 7
8 666 SAPEDE FLORIAN MSE 5   01:13:15 13,1 8
9 700 KRANTZ THIBAUD MSE 6 NL 01:14:08 12,9 9
10 634 LEGAY TANGUY MSE 7 TRIATHL'AIX 01:14:27 12,9 10
11 575 EL MOUHAMOUSSI MUSTAFA MSE 8 USSA Sète Athletisme 01:15:12 12,8 11
12 657 ROCHER SÉBASTIEN MV1 3 maguelone joging 01:15:48 12,7 12
13 644 CORRALES CYRIL MV1 4 ENTENTE BALARUC-POUSSAN 01:16:42 12,5 13
14 595 BAUDE SÉBASTIEN MV1 5 ECG PIGNAN 01:17:16 12,4 14
15 602 BERTET BENJAMIN MSE 9 Kényans du Ventoux 01:17:36 12,4 15
16 607 VIDAL THOMAS MSE 10 Vidal 01:17:59 12,3 16
17 526 CONTE CEDRIC MSE 11 MAGUELONE JOGGING 01:18:05 12,3 17
18 713 PALICE VALENTIN MES 2 NL 01:18:15 12,3 18
19 517 KAIKINGER SÉBASTIEN MSE 12 Babassk 01:18:42 12,2 19
20 611 AVIZOU PHILIPPE MV1 6 TRIRUN FRONTIGNAN 01:18:47 12,2 20
21 692 DEJEAN PATRICK MV2 1 NL 01:19:24 12,1 21
22 512 LESAGE SEBASTIEN MSE 13 Crossfit beziers 01:19:51 12,0 22
23 699 BASPEYRE JEAN MV1 7 NL 01:19:56 12,0 23
24 605 DAREY JONAS MSE 14   01:19:57 12,0 24
25 653 ESTEVE LUC MV1 8   01:20:25 11,9 25
26 543 CABROL OLIVIER MV1 9   01:20:43 11,9 26
27 694 BERNABE MARC MSE 15 NL 01:20:45 11,9 27
28 518 FARGEOT JÉRÔME MV1 10 LOUPS OCCITANS/GENERATION SED 01:20:45 11,9 28
29 623 MALZAC FABIEN MSE 16   01:20:45 11,9 29
30 665 HERVE SEBASTIEN MV1 11 AQUALOVE sauvetage 01:20:48 11,9 30
31 643 DALLIER PATRICK MV2 2 GEANT CASINO 01:21:02 11,8 31
32 709 ECHAPPE DAVID MSE 17 NL 01:21:25 11,8 32
33 586 LALLEMAND TONY MV1 12 AMICALE HÉRAULT ATHLETISME 01:21:26 11,8 33
34 546 BUCHARD JOHANN MV1 13   01:21:36 11,8 34
35 650 BERLAGUET LUDOVIC MSE 18   01:21:49 11,7 35
36 704 FOUMAS CYRIL MSE 19 NL 01:21:50 11,7 36
37 577 TASSIE JEROME MV1 14   01:22:15 11,7 37
38 601 QUET STEPHANE MV1 15   01:22:39 11,6 38
39 621 VILELLA PIERRE MJU 1   01:22:55 11,6 39
40 585 MOUSSON LAURENT MV2 3   01:22:56 11,6 40
41 647 KUTENBERG DENNIS MV1 16   01:23:30 11,5 41
42 660 LEROUX STEPHANE MSE 20   01:24:07 11,4 42
43 649 LIABEUF NICOLAS MSE 21 VEDAS ENDURANCE 01:24:10 11,4 43
44 635 GAVEAU PHILIPPE MSE 22   01:24:15 11,4 44
45 523 DELARBRE MATTHIEU MSE 23 TRIATHLETE CLUB NARBONNAIS 01:24:37 11,3 45
46 620 HURE SEBASTIEN MSE 24   01:24:43 11,3 46
47 705 JOUANIN LAURENT MV1 17 NL 01:25:05 11,3 47
48 683 COTTIN RÉMI MV2 4 TRIBIKE34 01:25:09 11,3 48
49 541 CHAMBON BENJAMIN MV1 18 COURIR À FABRÈGUES 01:25:13 11,3 49
50 580 BECUE FREDERICK MV1 19   01:25:45 11,2 50

Aucun commentaires pour le moment, donnez votre avis, vos impressions avant, pendant! et après la course

Déjà membre? Identifiez-vous pour commenter l'épreuve ou créer un compte